Terminal Aerodrome Forecast
Issued by NWS

Home | Current Version | Previous Version | Graphics & Text | Print | Product List | Glossary On
Versions: 1 2 3 4 5 6 7 8 9 10 11 12 13 14 15 16 17 18 19 20 21 22 23 24
540
FTUS43 KABR 052307 AAA
TAFATY
TAF AMD
KATY 052307Z 0523/0618 24013KT P6SM BKN012
     FM060100 28019G27KT P6SM BKN010
     FM060300 28018G27KT P6SM BKN015
     FM061100 28022G32KT 6SM BR BKN030
     FM061700 29026G36KT 4SM BR BKN025=

USA.gov is the U.S. government's official web portal to all federal, state and local government web resources and services.